Date,TemperatureHighF,TemperatureAvgF,TemperatureLowF,DewpointHighF,DewpointAvgF,DewpointLowF,HumidityHigh,HumidityAvg,HumidityLow,PressureMaxIn,PressureMinIn,WindSpeedMaxMPH,WindSpeedAvgMPH,GustSpeedMaxMPH,PrecipitationSumIn
2014-2-20,58.2,55.3,52.4,54.7,52.9,51.3,97,92,81,29.99,29.90,3,0,8,0.50
2014-2-21,59.3,53.2,50.6,51.9,49.5,47.4,97,88,69,29.98,29.86,6,1,12,0.72
2014-2-22,57.3,52.9,50.6,52.9,48.0,44.6,94,84,72,30.07,29.96,6,1,13,0.22
2014-2-23,58.2,51.8,48.1,47.2,43.7,37.8,85,74,51,30.12,30.04,7,1,14,0.04
2014-2-24,58.1,51.4,46.6,40.9,38.2,35.7,71,61,46,30.15,30.08,5,1,12,0.00
2014-2-25,59.3,52.5,47.0,44.8,41.0,38.6,75,65,50,30.19,30.12,3,0,10,0.00
2014-2-26,58.0,53.2,48.0,48.7,45.0,41.9,84,74,57,30.24,30.18,6,1,13,0.00
2014-2-27,56.2,52.1,48.5,49.6,47.0,44.2,95,83,65,30.23,30.13,3,1,12,0.78
2014-2-28,53.7,50.9,49.3,47.7,44.7,41.0,89,79,68,30.13,29.81,7,2,13,0.20
2014-3-1,52.7,48.6,44.2,48.3,45.6,40.8,95,89,82,29.81,29.50,9,3,22,1.12
2014-3-2,50.0,46.1,42.8,45.0,42.1,40.2,93,86,77,29.57,29.43,3,1,12,0.12
2014-3-3,56.5,50.7,45.0,45.7,42.0,38.7,82,72,59,29.57,29.36,8,2,18,0.01
2014-3-4,56.1,50.6,46.9,48.3,43.9,40.9,93,78,59,29.52,29.32,10,3,20,0.30
2014-3-5,58.7,51.3,45.7,44.1,41.8,39.6,87,71,50,29.82,29.52,12,2,23,0.01
2014-3-6,58.9,53.2,49.0,43.0,41.1,39.0,75,64,52,30.03,29.82,10,3,20,0.00
2014-3-7,59.7,54.4,50.0,45.3,42.7,40.1,79,65,54,30.11,30.02,12,3,20,0.00
2014-3-8,58.6,53.4,49.6,43.8,41.7,39.8,74,65,53,30.26,30.08,9,4,20,0.00
2014-3-9,61.3,55.4,51.0,42.0,39.4,36.1,67,55,44,30.25,30.12,13,4,22,0.00
2014-3-10,54.7,51.9,48.8,41.7,39.9,36.5,72,64,51,30.11,29.98,8,3,17,0.00
2014-3-11,54.1,50.8,48.9,41.2,38.9,36.6,69,64,54,30.26,30.02,7,2,16,0.00
2014-3-12,62.1,54.9,49.5,41.6,37.0,32.5,64,52,35,30.38,30.26,6,1,13,0.00
2014-3-13,64.0,57.1,50.2,44.8,38.8,32.1,62,51,33,30.36,30.28,5,1,14,0.00
2014-3-14,66.3,57.4,53.7,49.8,43.3,39.5,81,60,38,30.29,30.19,5,1,12,0.00
2014-3-15,63.4,57.1,52.1,51.6,47.2,39.9,87,70,49,30.19,29.99,6,1,12,0.00
2014-3-16,64.9,57.4,51.5,52.3,50.5,48.7,91,79,60,30.09,29.94,3,0,8,0.00
2014-3-17,61.1,56.5,53.3,53.8,52.5,50.9,94,87,75,30.23,30.09,3,1,10,0.00
2014-3-18,63.1,57.3,54.3,54.0,52.9,51.7,93,86,70,30.25,30.18,5,1,10,0.00
2014-3-19,63.0,57.1,53.6,53.1,51.9,50.9,93,83,68,30.22,30.14,5,1,10,0.01
2014-3-20,71.5,62.4,55.5,52.1,48.5,45.6,85,62,44,30.24,30.19,5,1,10,0.00
2014-3-21,65.4,60.5,55.4,55.1,51.2,47.7,89,72,53,30.20,30.14,6,1,10,0.00
2014-3-22,63.6,58.5,55.2,55.2,53.6,51.2,93,84,65,30.16,29.99,7,1,13,0.00
2014-3-23,59.5,56.2,52.7,55.5,52.0,44.6,95,86,74,29.99,29.76,9,3,28,0.20
2014-3-24,53.9,49.4,45.2,44.3,41.2,33.6,87,74,52,29.84,29.76,14,3,24,0.37
2014-3-25,55.3,48.6,44.9,45.4,43.1,40.0,94,82,65,29.87,29.72,6,1,12,0.37
2014-3-26,58.9,51.3,43.9,48.4,45.3,41.5,94,81,63,29.81,29.70,6,1,15,0.17
2014-3-27,55.2,51.0,47.6,48.7,46.3,43.8,94,84,70,29.72,29.56,6,2,17,0.59
2014-3-28,60.7,54.3,47.6,46.5,44.9,43.0,88,71,54,30.08,29.70,10,2,18,0.05
2014-3-29,67.8,58.8,51.9,50.1,44.6,42.1,72,60,42,30.15,30.07,6,1,14,0.00
2014-3-30,68.5,62.1,55.2,46.0,41.6,37.8,64,48,35,30.11,30.03,5,1,12,0.00
2014-3-31,67.8,61.1,54.5,51.9,44.2,37.9,77,54,40,30.06,29.97,5,1,12,0.00
2014-4-1,63.8,58.0,53.2,53.3,51.4,46.5,91,79,56,30.07,30.01,7,1,14,0.00
2014-4-2,63.6,57.9,53.9,52.9,51.8,48.8,92,80,65,30.06,29.94,3,1,10,0.00
2014-4-3,67.9,61.7,52.8,53.2,46.8,39.3,91,61,40,29.94,29.68,5,1,12,0.00
2014-4-4,66.3,58.9,53.2,56.2,52.8,43.7,91,81,44,29.74,29.64,5,1,13,0.48
2014-4-5,67.7,58.2,51.6,51.9,48.7,45.2,92,72,46,29.81,29.67,12,3,21,0.11
2014-4-6,68.9,61.2,56.5,53.3,47.9,45.1,72,62,45,29.99,29.80,8,3,15,0.01
2014-4-7,73.3,64.1,57.7,52.4,47.5,43.9,68,56,39,30.13,29.99,8,2,15,0.00
2014-4-8,66.4,61.2,57.3,57.0,53.8,47.7,92,77,62,30.17,30.10,7,2,13,0.00
2014-4-9,64.9,60.5,56.9,56.7,54.8,45.9,94,82,64,30.11,29.98,6,2,14,0.00
2014-4-10,68.0,59.8,53.6,46.7,37.8,30.9,68,45,26,30.12,30.04,8,3,16,0.00
2014-4-11,65.4,59.5,54.3,55.2,51.8,46.3,85,76,63,30.09,30.04,5,1,12,0.00
2014-4-12,64.4,59.2,55.9,54.5,52.8,50.8,89,80,64,30.09,30.01,6,1,10,0.00
2014-4-13,64.4,58.3,55.6,56.7,52.0,44.4,93,80,63,30.05,29.97,6,1,12,0.24
2014-4-14,68.5,62.0,54.4,54.4,47.1,41.0,85,59,39,30.08,29.99,8,2,13,0.00
2014-4-15,60.7,55.0,42.9,57.9,51.5,39.7,95,88,74,29.99,29.81,9,3,24,0.28
2014-4-16,57.7,51.2,46.8,40.1,35.8,31.5,77,57,38,30.03,29.86,9,4,19,0.01
2014-4-17,59.7,52.8,46.0,39.2,35.8,30.2,70,53,35,29.98,29.89,10,3,17,0.00
2014-4-18,60.9,54.6,48.8,49.2,40.1,34.4,80,59,42,29.90,29.77,5,1,15,0.00
2014-4-19,58.8,56.7,54.3,56.5,52.4,49.0,94,86,76,29.81,29.76,7,2,17,0.12
2014-4-20,65.8,60.4,56.8,56.3,50.7,43.7,93,71,46,29.79,29.69,5,2,15,0.00
2014-4-21,75.2,65.7,57.9,55.9,49.8,42.3,88,58,40,29.84,29.63,7,2,18,0.00
2014-4-22,74.2,64.9,57.3,59.0,55.9,52.4,93,74,47,29.94,29.83,7,1,14,0.06
2014-4-23,65.7,60.5,57.2,58.5,55.1,52.0,94,83,67,29.94,29.83,6,2,17,0.41
2014-4-24,70.2,63.2,56.0,58.5,54.8,50.6,90,75,59,29.91,29.87,7,1,15,0.00
2014-4-25,67.6,62.2,58.1,58.7,56.9,55.3,92,83,71,29.91,29.84,7,1,13,0.00
2014-4-26,67.5,60.4,57.3,58.8,56.6,53.4,95,88,66,29.84,29.74,9,1,15,0.52
2014-4-27,62.7,58.4,54.0,58.7,55.7,48.6,97,91,75,29.83,29.69,8,2,15,0.35
2014-4-28,63.3,57.0,53.0,55.4,52.4,49.8,95,85,72,29.80,29.65,12,3,20,0.19
2014-4-29,62.2,57.2,50.0,54.3,51.2,48.1,94,81,62,29.86,29.72,7,2,15,0.67
2014-4-30,63.4,59.9,55.3,56.7,54.8,53.0,93,83,74,29.89,29.84,7,2,14,0.00
2014-5-1,66.3,59.2,53.1,55.9,53.6,50.5,95,82,62,29.87,29.81,8,1,14,0.44
2014-5-2,61.5,58.2,55.2,56.4,54.4,52.6,94,87,77,29.86,29.77,5,1,14,0.12
2014-5-3,61.5,56.2,53.1,54.9,51.8,48.9,96,85,71,29.76,29.61,5,1,14,0.34
2014-5-4,64.7,58.2,52.6,51.4,47.7,43.2,86,69,55,29.91,29.64,5,1,12,0.00
2014-5-5,67.6,61.0,54.2,54.3,48.4,43.4,82,64,46,30.08,29.91,9,3,16,0.00
2014-5-6,68.6,62.2,56.2,57.5,55.0,52.3,92,78,57,30.19,30.08,7,1,12,0.00
2014-5-7,66.9,61.5,57.8,57.6,55.8,52.8,94,82,68,30.19,30.05,3,1,11,0.00
2014-5-8,70.2,64.0,57.4,58.1,55.5,53.0,92,75,56,30.08,30.02,6,1,13,0.00
2014-5-9,73.6,66.2,58.6,60.4,55.2,50.3,91,69,48,30.06,30.00,5,1,12,0.00
2014-5-10,70.1,64.4,61.3,60.0,59.1,57.8,93,83,69,30.07,30.01,5,1,12,0.00
2014-5-11,69.4,65.2,61.2,59.4,57.9,54.0,90,78,61,30.06,29.93,5,1,12,0.00
2014-5-12,68.9,64.5,61.8,62.0,59.6,56.9,93,84,68,30.00,29.93,6,2,13,0.00
2014-5-13,71.0,63.4,59.1,57.9,54.1,50.3,84,72,53,30.00,29.78,9,2,18,0.00
2014-5-14,67.3,62.3,57.0,53.2,45.1,38.6,81,54,37,30.02,29.78,13,3,25,0.01
2014-5-15,69.1,60.7,55.2,49.6,42.6,36.4,72,53,33,30.01,29.93,7,1,13,0.05
2014-5-16,63.0,58.0,54.0,51.5,46.3,40.7,87,66,49,29.98,29.91,7,1,16,0.02
2014-5-17,64.7,59.4,53.9,55.1,51.5,44.8,93,76,63,30.11,29.96,6,1,14,0.11
2014-5-18,72.5,64.3,55.9,55.0,48.9,38.2,87,60,31,30.11,30.03,5,1,10,0.00
2014-5-19,68.7,64.3,62.5,58.1,51.3,41.0,76,64,42,30.04,29.98,5,1,12,0.00
2014-5-20,75.2,67.9,60.0,57.8,55.0,52.2,79,64,49,30.10,30.03,5,1,10,0.00
2014-5-21,78.7,70.6,62.0,63.0,57.5,53.5,86,64,47,30.10,30.04,5,1,12,0.00
2014-5-22,79.1,72.0,65.1,62.1,57.0,47.4,80,60,45,30.06,29.96,6,1,12,0.00
2014-5-23,74.8,70.0,66.2,62.5,58.5,48.3,79,67,47,30.01,29.88,7,1,14,0.01
2014-5-24,77.5,69.6,65.2,63.2,60.1,56.3,88,72,54,30.03,29.96,5,1,12,0.00
2014-5-25,84.2,75.4,67.0,63.0,59.8,56.4,79,60,39,29.99,29.91,6,1,10,0.02
2014-5-26,76.1,69.9,63.0,64.9,60.1,52.5,84,72,44,30.01,29.92,9,2,15,0.00
2014-5-27,71.2,66.3,62.2,59.9,56.0,48.4,87,70,59,30.00,29.96,12,4,21,0.00
2014-5-28,71.0,64.5,60.2,57.7,53.4,48.5,74,67,58,30.00,29.89,9,2,20,0.00
2014-5-29,68.9,64.4,60.9,59.3,55.2,53.1,86,72,60,29.91,29.84,9,2,23,0.05
2014-5-30,71.5,65.2,60.5,60.0,58.0,54.7,90,78,58,29.96,29.89,8,2,17,0.00
2014-5-31,70.1,63.0,58.6,60.6,56.5,51.2,87,80,69,29.98,29.92,5,1,12,0.11
2014-6-1,72.6,66.3,59.0,52.0,48.7,44.4,76,54,42,30.01,29.95,6,2,12,0.00
2014-6-2,76.2,67.9,60.3,51.8,48.6,45.6,61,51,40,30.01,29.89,8,3,17,0.00
2014-6-3,79.2,69.8,60.7,55.3,48.0,44.2,64,47,30,29.92,29.81,8,4,17,0.00
2014-6-4,76.4,71.2,65.5,59.0,50.7,43.1,71,49,32,29.97,29.83,8,2,20,0.00
2014-6-5,74.2,68.7,63.3,62.2,60.0,56.7,86,74,60,30.08,29.96,6,1,13,0.00
2014-6-6,82.2,72.9,63.9,61.6,58.0,49.5,86,62,37,30.10,30.04,5,1,12,0.00
2014-6-7,84.7,76.5,67.0,65.2,60.3,53.1,77,58,43,30.07,30.01,5,1,12,0.00
2014-6-8,89.4,80.3,72.3,62.7,57.4,51.1,70,47,32,30.05,30.00,7,2,12,0.00
2014-6-9,92.7,82.3,75.4,61.9,55.2,50.1,48,40,32,30.04,29.97,8,2,14,0.00
2014-6-10,89.6,80.3,73.2,59.4,55.8,52.5,62,44,29,30.04,29.99,9,1,16,0.02
2014-6-11,85.5,80.7,74.6,69.2,62.8,55.5,76,55,44,30.09,30.02,6,1,12,0.00
2014-6-12,87.0,79.4,73.8,71.3,66.6,56.2,86,66,40,30.08,30.00,5,1,16,0.00
2014-6-13,84.3,78.6,71.9,72.4,69.3,66.9,87,74,60,30.02,29.87,6,1,12,0.00
2014-6-14,80.9,75.4,71.5,70.2,67.2,60.3,91,76,58,29.88,29.75,5,1,13,0.00
2014-6-15,79.7,74.3,69.4,70.1,64.6,59.8,85,72,61,29.83,29.75,6,2,14,0.00
2014-6-16,73.4,69.2,63.0,66.5,63.3,57.7,92,82,60,29.90,29.80,12,1,25,1.09
2014-6-17,75.7,72.0,67.8,66.4,64.7,63.0,89,78,70,29.87,29.83,6,2,15,0.02
2014-6-18,75.7,69.6,65.7,64.5,62.9,61.2,90,80,63,29.95,29.85,5,2,13,0.06
2014-6-19,66.5,66.2,65.9,62.4,62.1,61.3,88,87,84,29.92,29.90,6,1,13,0.00
2014-6-20,79.2,72.6,63.8,64.7,60.4,55.7,83,66,51,29.96,29.91,7,1,12,0.00
2014-6-21,77.9,72.0,66.8,66.4,63.9,60.8,87,76,58,30.06,29.95,6,1,12,0.00
2014-6-22,81.4,74.5,67.3,66.4,63.7,58.6,89,70,51,30.16,30.06,6,1,12,0.00
2014-6-23,83.5,76.4,69.0,67.9,60.8,51.1,83,60,34,30.19,30.08,6,1,12,0.00
2014-6-24,86.6,79.6,70.4,64.9,57.5,48.6,81,49,28,30.09,29.89,5,1,14,0.00
2014-6-25,80.2,75.6,70.5,70.5,66.8,55.0,89,75,44,29.97,29.82,9,2,22,0.08
2014-6-26,83.1,74.8,70.0,69.6,66.1,58.5,94,76,46,29.93,29.83,9,2,15,0.00
2014-6-27,80.0,74.7,69.5,66.4,63.7,60.9,84,69,55,30.08,29.91,7,2,15,0.00
2014-6-28,80.6,75.3,70.4,69.4,66.9,61.6,89,76,64,30.10,30.04,6,1,13,0.00
2014-6-29,83.5,76.5,69.6,67.7,63.0,54.9,90,65,39,30.04,29.84,5,1,12,0.00
2014-6-30,76.4,73.3,69.9,71.1,64.3,60.7,94,74,59,29.99,29.76,13,4,20,0.04
2014-7-1,78.9,73.5,67.8,63.9,62.1,59.9,79,68,57,30.07,29.99,5,1,12,0.00
2014-7-2,82.6,74.5,68.5,64.8,62.3,55.2,86,67,39,30.17,30.04,5,1,10,0.00
2014-7-3,88.1,77.9,68.6,66.7,62.9,59.0,80,61,41,30.22,30.15,6,1,9,0.00
2014-7-4,88.9,81.1,74.6,69.1,64.1,59.6,72,57,44,30.15,29.97,5,1,10,0.00
2014-7-5,80.9,76.2,71.3,72.8,68.2,64.2,88,77,63,29.99,29.91,6,2,15,0.00
2014-7-6,82.7,76.4,70.1,71.8,67.3,59.6,88,74,55,29.99,29.94,6,1,14,0.00
2014-7-7,86.4,78.9,70.8,70.8,66.7,62.1,87,67,53,30.06,29.95,6,1,12,0.00
2014-7-8,80.3,76.0,70.7,71.2,65.0,56.2,85,69,56,29.94,29.86,14,4,24,0.00
2014-7-9,76.5,72.1,68.1,62.0,59.8,56.5,74,65,56,29.91,29.83,9,4,20,0.00
2014-7-10,73.4,69.1,65.2,62.3,59.1,56.8,87,71,60,29.82,29.74,12,5,23,0.13
2014-7-11,76.6,70.1,62.8,63.4,58.6,55.2,81,68,54,29.86,29.75,8,2,16,0.00
2014-7-12,76.8,72.1,66.5,65.7,63.8,60.4,88,76,61,29.96,29.86,7,2,15,0.00
2014-7-13,75.9,71.0,64.1,65.4,62.1,57.4,92,74,58,29.98,29.90,8,2,16,0.02
2014-7-14,76.5,70.9,65.4,66.3,63.6,59.5,88,78,64,29.98,29.90,7,2,22,0.31
2014-7-15,79.6,74.0,65.2,64.8,61.2,55.5,82,65,52,30.00,29.93,9,2,18,0.00
2014-7-16,86.5,77.3,70.7,66.1,62.2,59.0,71,60,45,30.01,29.95,8,1,15,0.00
2014-7-17,86.6,80.7,73.3,69.3,64.0,59.8,77,57,47,30.02,29.97,7,1,15,0.00
2014-7-18,87.4,80.3,74.0,66.3,63.3,60.2,68,57,43,30.02,29.95,9,1,16,0.00
2014-7-19,88.2,81.7,74.0,68.4,61.7,54.7,66,51,37,30.01,29.97,7,1,12,0.00
2014-7-20,88.6,80.7,75.8,72.5,64.1,55.9,71,57,43,30.02,29.87,3,1,9,0.00
2014-7-21,80.5,75.8,71.1,71.4,65.5,58.3,88,71,50,30.01,29.84,12,2,18,0.09
2014-7-22,75.5,69.0,65.5,66.7,64.0,60.9,95,84,71,29.85,29.73,3,1,13,0.01
2014-7-23,80.4,74.2,65.7,66.1,62.6,59.0,84,68,54,29.87,29.76,7,2,12,0.01
2014-7-24,82.1,75.4,70.2,70.4,67.2,64.0,86,76,58,29.92,29.84,6,1,12,0.00
2014-7-25,82.3,76.1,70.8,68.9,67.8,66.1,88,76,60,29.95,29.89,6,1,14,0.00
2014-7-26,85.1,76.2,72.0,69.6,66.9,61.8,87,74,48,29.94,29.79,5,0,9,0.06
2014-7-27,80.4,75.1,67.7,71.0,67.9,65.0,93,79,65,29.89,29.77,5,2,14,0.86
2014-7-28,80.9,75.9,70.4,69.7,68.0,66.4,88,77,66,29.92,29.87,6,1,12,0.00
2014-7-29,84.2,77.1,71.2,70.4,68.6,65.4,90,76,60,29.90,29.73,5,1,12,0.00
2014-7-30,78.2,72.8,66.5,71.6,64.2,59.7,90,75,58,29.79,29.68,9,3,23,0.46
2014-7-31,78.1,72.1,66.5,67.4,64.9,61.6,93,79,60,29.85,29.76,6,1,12,0.05
2014-8-1,82.7,76.6,70.5,70.6,68.5,66.3,88,77,64,29.85,29.79,6,1,12,0.00
2014-8-2,83.1,76.8,72.4,71.6,70.3,67.6,92,81,65,29.94,29.83,3,1,12,0.00
2014-8-3,87.1,77.9,72.6,70.1,68.3,63.9,89,73,47,29.96,29.88,6,1,12,0.00
2014-8-4,87.9,80.5,74.0,71.5,66.7,59.2,78,64,51,29.94,29.89,8,1,15,0.00
2014-8-5,84.5,78.2,73.0,72.1,68.7,62.6,91,73,54,29.92,29.83,7,1,16,0.00
2014-8-6,84.6,78.2,72.1,70.6,67.5,63.6,86,71,52,29.86,29.81,6,1,12,0.00
2014-8-7,85.0,78.1,72.1,68.6,63.1,59.3,78,61,46,29.93,29.83,7,1,15,0.00
2014-8-8,84.3,78.4,72.7,72.1,69.1,66.6,85,74,60,29.99,29.92,7,1,12,0.00
2014-8-9,86.6,79.1,72.7,72.2,67.5,58.3,89,69,45,30.03,29.97,6,1,12,0.00
2014-8-10,87.6,80.6,72.8,71.7,65.5,54.7,76,61,45,30.02,29.97,3,1,10,0.00
2014-8-11,88.7,81.4,73.9,70.0,63.3,56.1,74,56,34,29.99,29.92,5,1,12,0.00
2014-8-12,87.6,80.9,74.4,69.2,65.3,59.6,79,60,41,29.95,29.90,5,1,10,0.00
2014-8-13,86.5,80.3,73.7,73.0,68.2,59.8,89,68,43,29.92,29.82,6,1,13,0.00
2014-8-14,83.5,78.7,74.6,72.4,68.7,61.4,87,72,53,29.89,29.82,10,2,20,0.00